BISONSAT

Last updated on Wed Nov 05 2025 00:03:48 GMT+0000 (Coordinated Universal Time)

1 40974U 15058L 25308.60384654 .00012381 00000+0 69900-3 0 9998 2 40974 64.7605 176.4492 0094369 145.4234 215.3075 15.09676677 81636
UTC large
Height (km)
Speed (km/s)
/
Latitude / Longitude
Inclination (degrees)
Orbital Period (minutes)
Azimuth
Elevation
Range (km)
Doppler Factor

Next 0 passes for location: London (51.5072 / 0.1276)

Sorry there are no passes over London.